| time (UTC) | temp F | wind direction | speed knots | gust knots | rain 1hr in | rain 24hr in | rain mn in | humidity % | barometer mb |
| 20260508074530 | 56 | 81 | 2.6 | 5.2 | 0.00 | 0.00 | 0.00 | 17 | 1010.4 |
| 20260508073004 | 56 | 5 | 2.6 | 7.0 | 0.00 | 0.00 | 0.00 | 17 | 1010.6 |
| 20260508071549 | 56 | 34 | 2.6 | 7.0 | 0.00 | 0.00 | 0.00 | 17 | 1010.6 |
| 20260508070030 | 57 | 33 | 1.7 | 4.3 | 0.00 | 0.00 | 0.00 | 16 | 1010.7 |
| 20260508064531 | 57 | 10 | 2.6 | 7.0 | 0.00 | 0.00 | 0.00 | 16 | 1010.8 |
| 20260508063047 | 56 | 17 | 2.6 | 7.0 | 0.00 | 0.00 | 0.00 | 16 | 1010.7 |
| 20260508061532 | 56 | 11 | 0.0 | 2.6 | 0.00 | 0.00 | 0.00 | 16 | 1010.6 |
| 20260508060015 | 56 | 289 | 0.9 | 3.5 | 0.00 | 0.00 | 0.00 | 16 | 1010.6 |
| 20260508054554 | 56 | 350 | 0.9 | 2.6 | 0.00 | 0.00 | 0.00 | 16 | 1010.7 |
| 20260508053029 | 55 | 304 | 1.7 | 3.5 | 0.00 | 0.00 | 0.00 | 16 | 1010.7 |
| 20260508051513 | 56 | 309 | 0.9 | 7.0 | 0.00 | 0.00 | 0.00 | 15 | 1010.8 |
| 20260508050051 | 56 | 295 | 4.3 | 7.0 | 0.00 | 0.00 | 0.00 | 15 | 1010.8 |
| 20260508044531 | 59 | 313 | 3.5 | 7.8 | 0.00 | 0.00 | 0.00 | 15 | 1010.6 |
| 20260508043012 | 59 | 11 | 4.3 | 9.6 | 0.00 | 0.00 | 0.00 | 14 | 1010.7 |
| 20260508041551 | 60 | 355 | 3.5 | 8.7 | 0.00 | 0.00 | 0.00 | 13 | 1010.8 |
| 20260508040027 | 61 | 341 | 1.7 | 5.2 | 0.00 | 0.00 | 0.00 | 12 | 1011.0 |
| 20260508034510 | 62 | 5 | 3.5 | 7.8 | 0.00 | 0.00 | 0.00 | 11 | 1011.0 |
| 20260508033050 | 63 | 346 | 4.3 | 7.8 | 0.00 | 0.00 | 0.00 | 10 | 1010.8 |
| 20260508031530 | 63 | 13 | 4.3 | 8.7 | 0.00 | 0.00 | 0.00 | 10 | 1010.6 |
| 20260508030011 | 64 | 360 | 3.5 | 7.0 | 0.00 | 0.00 | 0.00 | 10 | 1010.4 |
| 20260508024555 | 65 | 11 | 3.5 | 7.0 | 0.00 | 0.00 | 0.00 | 9 | 1010.2 |
| 20260508023036 | 65 | 350 | 4.3 | 7.8 | 0.00 | 0.00 | 0.00 | 8 | 1010.1 |
| 20260508021511 | 67 | 52 | 3.5 | 7.8 | 0.00 | 0.00 | 0.00 | 7 | 1009.9 |
| 20260508020051 | 68 | 32 | 3.5 | 7.8 | 0.00 | 0.00 | 0.00 | 7 | 1009.7 |
| 20260508014533 | 70 | 25 | 6.1 | 12.2 | 0.00 | 0.00 | 0.00 | 6 | 1009.8 |
| 20260508013013 | 71 | 47 | 7.0 | 12.2 | 0.00 | 0.00 | 0.00 | 6 | 1009.5 |
| 20260508011610 | 72 | 39 | 6.1 | 13.9 | 0.00 | 0.00 | 0.00 | 6 | 1009.3 |
| 20260508010034 | 73 | 360 | 6.1 | 12.2 | 0.00 | 0.00 | 0.00 | 6 | 1009.4 |
| 20260508004515 | 74 | 36 | 3.5 | 11.3 | 0.00 | 0.00 | 0.00 | 6 | 1009.3 |
| 20260508003108 | 74 | 40 | 5.2 | 11.3 | 0.00 | 0.00 | 0.00 | 6 | 1009.3 |
| 20260508001540 | 75 | 78 | 3.5 | 13.9 | 0.00 | 0.00 | 0.00 | 6 | 1009.4 |
| 20260508000016 | 75 | 9 | 5.2 | 11.3 | 0.00 | 0.00 | 0.00 | 6 | 1009.4 |
| 20260507234558 | 75 | 15 | 0.0 | 13.0 | 0.00 | 0.00 | 0.00 | 7 | 1009.3 |
| 20260507233039 | 74 | 57 | 8.7 | 15.6 | 0.00 | 0.00 | 0.00 | 7 | 1009.5 |
| 20260507231517 | 76 | 291 | 2.6 | 6.1 | 0.00 | 0.00 | 0.00 | 7 | 1009.7 |
| 20260507230059 | 76 | 292 | 3.5 | 9.6 | 0.00 | 0.00 | 0.00 | 7 | 1010.1 |
| 20260507230003 | 76 | 275 | 3.5 | 9.6 | 0.00 | 0.00 | 0.00 | 7 | 1010.1 |
| 20260507224547 | 75 | 69 | 0.0 | 7.8 | 0.00 | 0.00 | 0.00 | 7 | 1010.3 |
| 20260507223022 | 76 | 311 | 4.3 | 7.8 | 0.00 | 0.00 | 0.00 | 7 | 1010.6 |
| 20260507221559 | 76 | 279 | 0.0 | 6.1 | 0.00 | 0.00 | 0.00 | 7 | 1010.7 |
| 20260507220040 | 75 | 242 | 3.5 | 12.2 | 0.00 | 0.00 | 0.00 | 7 | 1011.0 |
| 20260507214530 | 75 | 167 | 0.9 | 11.3 | 0.00 | 0.00 | 0.00 | 7 | 1011.3 |
| 20260507213008 | 74 | 98 | 0.0 | 10.4 | 0.00 | 0.00 | 0.00 | 7 | 1011.5 |
| 20260507211549 | 74 | 70 | 2.6 | 9.6 | 0.00 | 0.00 | 0.00 | 7 | 1011.9 |
| 20260507210024 | 74 | 259 | 4.3 | 8.7 | 0.00 | 0.00 | 0.00 | 8 | 1012.4 |
| 20260507204505 | 73 | 26 | 4.3 | 10.4 | 0.00 | 0.00 | 0.00 | 9 | 1012.7 |
| 20260507203042 | 73 | 271 | 5.2 | 10.4 | 0.00 | 0.00 | 0.00 | 10 | 1012.8 |
| 20260507201524 | 72 | 268 | 0.9 | 9.6 | 0.00 | 0.00 | 0.00 | 11 | 1013.3 |
| 20260507200017 | 72 | 122 | 0.0 | 6.1 | 0.00 | 0.00 | 0.00 | 10 | 1013.3 |
| 20260507194541 | 73 | 80 | 0.9 | 6.1 | 0.00 | 0.00 | 0.00 | 10 | 1013.7 |
| 20260507193026 | 72 | 215 | 0.0 | 8.7 | 0.00 | 0.00 | 0.00 | 11 | 1014.0 |
| 20260507191559 | 71 | 105 | 0.0 | 12.2 | 0.00 | 0.00 | 0.00 | 12 | 1014.3 |
| 20260507190041 | 71 | 258 | 0.0 | 4.3 | 0.00 | 0.00 | 0.00 | 13 | 1014.6 |
| 20260507184512 | 69 | 167 | 0.9 | 9.6 | 0.00 | 0.00 | 0.00 | 13 | 1015.0 |
| 20260507183058 | 68 | 277 | 4.3 | 8.7 | 0.00 | 0.00 | 0.00 | 14 | 1015.2 |
| 20260507181534 | 68 | 290 | 1.7 | 5.2 | 0.00 | 0.00 | 0.00 | 16 | 1015.4 |
| 20260507180016 | 67 | 60 | 0.0 | 5.2 | 0.00 | 0.00 | 0.00 | 18 | 1015.9 |
| 20260507174557 | 66 | 311 | 3.5 | 7.0 | 0.00 | 0.00 | 0.00 | 18 | 1016.1 |
| 20260507173034 | 65 | 194 | 2.6 | 6.1 | 0.00 | 0.00 | 0.00 | 20 | 1016.3 |
| 20260507171511 | 61 | 315 | 1.7 | 7.8 | 0.00 | 0.00 | 0.00 | 23 | 1016.5 |
| 20260507170051 | 61 | 146 | 0.0 | 4.3 | 0.00 | 0.00 | 0.00 | 24 | 1016.7 |
| 20260507164532 | 59 | 74 | 2.6 | 8.7 | 0.00 | 0.00 | 0.00 | 26 | 1016.8 |
| 20260507163010 | 57 | 108 | 5.2 | 10.4 | 0.00 | 0.00 | 0.00 | 29 | 1017.2 |
| 20260507161548 | 56 | 90 | 2.6 | 8.7 | 0.00 | 0.00 | 0.00 | 31 | 1017.2 |
| 20260507160034 | 55 | 116 | 2.6 | 12.2 | 0.00 | 0.00 | 0.00 | 32 | 1017.4 |
| 20260507154504 | 54 | 69 | 0.9 | 7.0 | 0.00 | 0.00 | 0.00 | 35 | 1017.4 |
| 20260507153050 | 52 | 100 | 2.6 | 7.8 | 0.00 | 0.00 | 0.00 | 38 | 1017.5 |
| 20260507151520 | 49 | 101 | 2.6 | 8.7 | 0.00 | 0.00 | 0.00 | 44 | 1017.5 |
| 20260507150058 | 48 | 102 | 5.2 | 11.3 | 0.00 | 0.00 | 0.00 | 48 | 1017.5 |
| 20260507144538 | 46 | 107 | 8.7 | 13.0 | 0.00 | 0.00 | 0.00 | 50 | 1017.6 |
| 20260507143020 | 45 | 103 | 5.2 | 11.3 | 0.00 | 0.00 | 0.00 | 52 | 1017.8 |
| 20260507141605 | 44 | 113 | 5.2 | 12.2 | 0.00 | 0.00 | 0.00 | 52 | 1017.7 |
| 20260507141508 | 44 | 67 | 5.2 | 12.2 | 0.00 | 0.00 | 0.00 | 53 | 1017.7 |
| 20260507140104 | 43 | 130 | 6.1 | 12.2 | 0.00 | 0.00 | 0.00 | 53 | 1017.8 |
| 20260507134526 | 42 | 69 | 4.3 | 8.7 | 0.00 | 0.00 | 0.00 | 52 | 1017.9 |
| 20260507133006 | 41 | 76 | 3.5 | 7.0 | 0.00 | 0.00 | 0.00 | 49 | 1017.8 |
| 20260507131600 | 39 | 76 | 3.5 | 8.7 | 0.00 | 0.00 | 0.00 | 49 | 1017.6 |
| 20260507130027 | 38 | 76 | 3.5 | 8.7 | 0.00 | 0.00 | 0.00 | 54 | 1017.8 |
| 20260507124510 | 38 | 65 | 4.3 | 7.8 | 0.00 | 0.00 | 0.00 | 63 | 1017.6 |
| 20260507123056 | 38 | 56 | 3.5 | 8.7 | 0.00 | 0.00 | 0.00 | 70 | 1017.3 |
| 20260507121540 | 37 | 87 | 7.0 | 10.4 | 0.00 | 0.00 | 0.00 | 71 | 1017.0 |
| 20260507120016 | 38 | 48 | 5.2 | 10.4 | 0.00 | 0.00 | 0.00 | 70 | 1017.0 |
| 20260507114552 | 38 | 64 | 5.2 | 10.4 | 0.00 | 0.00 | 0.00 | 68 | 1017.1 |
| 20260507113038 | 38 | 86 | 5.2 | 10.4 | 0.00 | 0.00 | 0.00 | 67 | 1017.0 |
| 20260507111516 | 39 | 73 | 7.0 | 11.3 | 0.00 | 0.00 | 0.00 | 65 | 1017.2 |
| 20260507110050 | 39 | 31 | 5.2 | 11.3 | 0.00 | 0.00 | 0.00 | 64 | 1017.2 |
| 20260507104526 | 39 | 46 | 6.1 | 12.2 | 0.00 | 0.00 | 0.00 | 60 | 1017.2 |
| 20260507103008 | 39 | 63 | 5.2 | 10.4 | 0.00 | 0.00 | 0.00 | 53 | 1017.3 |
| 20260507101549 | 40 | 86 | 4.3 | 8.7 | 0.00 | 0.00 | 0.00 | 50 | 1017.3 |
| 20260507100031 | 40 | 107 | 4.3 | 8.7 | 0.00 | 0.00 | 0.00 | 43 | 1017.0 |
| 20260507094600 | 40 | 78 | 1.7 | 10.4 | 0.00 | 0.00 | 0.00 | 41 | 1016.9 |
| 20260507094501 | 40 | 69 | 2.6 | 10.4 | 0.00 | 0.00 | 0.00 | 41 | 1016.8 |
| 20260507093039 | 39 | 55 | 5.2 | 8.7 | 0.00 | 0.00 | 0.00 | 38 | 1016.7 |
| 20260507091517 | 40 | 67 | 2.6 | 7.0 | 0.00 | 0.00 | 0.00 | 38 | 1016.8 |
| 20260507090054 | 41 | 67 | 3.5 | 6.1 | 0.00 | 0.00 | 0.00 | 37 | 1016.9 |
| 20260507084533 | 41 | 70 | 5.2 | 8.7 | 0.00 | 0.00 | 0.00 | 36 | 1016.8 |
| 20260507083032 | 43 | 51 | 5.2 | 10.4 | 0.00 | 0.00 | 0.00 | 34 | 1016.7 |
| 20260507081547 | 44 | 38 | 5.2 | 10.4 | 0.00 | 0.00 | 0.00 | 32 | 1016.4 |
| 20260507080030 | 44 | 26 | 6.1 | 9.6 | 0.00 | 0.00 | 0.00 | 31 | 1016.5 |